[[{"header":{"parameterUnit":"m.s-1","parameterCategory":1,"la1":30.2991,"la2":30.254,"lo1":-89.0895,"lo2":-89.0444,"dy":0.0017,"dx":0.0017,"nx":28,"ny":28,"refTime":"2025-03-01T09:00:00:Z","depth":0,"parameterNumber":2,"parameterNumberName":"U-component_of_WINDS"},"data":[0,0,0,0,0,0,0,0,0,0,0,0,0,0,0,0,0,0,0,0,0,0,0,0,0,0,0,0,0,0,0,0,0,0,0,0,0,0,0,0,0,0,0,0,0,0,0,0,0,0,0,0,0,0,0,0,0,0,-1.4533,-1.4533,0,-1.445,-1.4449,-1.4448,-1.4377,-1.4376,-1.4375,-1.4375,-1.429,-1.4289,-1.4287,0,0,0,0,0,0,0,0,0,0,0,0,0,-1.4633,-1.4632,-1.4534,-1.4532,-1.4531,-1.445,-1.4449,-1.4448,-1.4377,-1.4376,-1.4375,-1.4374,-1.4291,-1.4289,-1.4287,0,0,0,0,0,0,0,0,0,0,0,0,0,-1.4574,-1.4631,-1.4534,-1.4486,-1.4481,-1.4451,-1.4449,-1.4448,-1.4377,-1.4376,-1.4375,-1.4374,-1.4291,-1.4289,-1.4287,-1.4297,0,0,-1.428,-1.4279,0,0,0,0,0,0,0,0,-1.4578,-1.457,-1.4494,-1.4489,-1.4484,-1.4423,-1.4453,-1.4397,-1.4378,-1.4417,-1.4374,-1.4373,-1.4335,-1.4329,-1.4316,-1.4293,-1.4289,-1.428,-1.4279,-1.4278,-1.4277,0,0,0,0,0,0,0,-1.4582,-1.4574,-1.45,-1.4493,-1.4487,-1.447,-1.446,-1.4442,-1.4384,-1.4413,-1.4408,-1.4399,-1.4332,-1.4319,-1.4314,-1.4288,-1.428,-1.4278,-1.4277,-1.4276,-1.4272,-1.4273,0,0,0,0,0,0,-1.4593,-1.4578,-1.4503,-1.4498,-1.4529,-1.4469,-1.4458,-1.4443,-1.4384,-1.4373,-1.44,-1.4396,-1.4323,-1.4317,-1.4311,-1.4321,-1.4278,-1.4275,-1.4274,-1.4271,-1.4273,-1.4274,0,0,0,0,0,0,-1.4595,-1.4587,-1.4506,-1.4536,-1.4525,-1.4468,-1.4453,-1.4442,-1.4429,-1.4374,-1.4363,-1.4397,-1.4322,-1.4314,-1.4302,-1.4317,-1.4274,-1.4272,-1.427,-1.4272,-1.4273,-1.434,0,0,0,0,0,0,-1.4598,-1.4588,-1.4591,-1.4537,-1.4523,-1.4498,-1.4454,-1.4442,-1.4425,-1.4419,-1.4368,-1.4359,-1.432,-1.4305,-1.4299,-1.4313,-1.4271,-1.4268,-1.427,-1.4273,-1.4337,-1.4344,-1.4351,0,0,0,0,0,-1.4602,-1.4613,-1.4591,-1.4583,-1.4525,-1.4499,-1.4492,-1.4447,-1.4427,-1.4429,-1.4394,-1.436,-1.4316,-1.4305,-1.4297,-1.4311,-1.4267,-1.427,-1.4272,-1.4333,-1.4343,-1.4351,0,0,0,0,0,0,-1.4669,-1.4605,-1.458,-1.4573,-1.4542,-1.4487,-1.4489,-1.4458,-1.4433,-1.4428,-1.4375,-1.4364,-1.4358,-1.4333,-1.4321,-1.4319,-1.4287,-1.4289,-1.4336,-1.4344,-1.4351,-1.4359,-1.4269,0,0,0,0,0,-1.4684,-1.4667,-1.4611,-1.4611,-1.4596,-1.4546,-1.4533,-1.4501,-1.4467,-1.4454,-1.4418,-1.4387,-1.4366,-1.4353,-1.4331,-1.4332,-1.4322,-1.4338,-1.4345,-1.4351,-1.4354,-1.4356,-1.4363,-1.4283,-1.4283,-1.4283,0,0,-1.4712,-1.4675,-1.4668,-1.4623,-1.4596,-1.4581,-1.4535,-1.4521,-1.451,-1.4452,-1.4439,-1.4411,-1.4373,-1.4369,-1.4365,-1.4347,-1.4374,-1.4355,-1.436,-1.4359,-1.4359,-1.4367,-1.4374,-1.4285,-1.4285,-1.4284,0,0,-1.4758,-1.4727,-1.4724,-1.4698,-1.4657,-1.4623,-1.4623,-1.4573,-1.4553,-1.4539,-1.4495,-1.4482,-1.4446,-1.4422,-1.4405,-1.4444,-1.4412,-1.4438,-1.4476,-1.4479,-1.4485,-1.449,-1.4507,-1.4513,-1.444,-1.444,-1.444,0,-1.4799,-1.4775,-1.4727,-1.4716,-1.4699,-1.4646,-1.4644,-1.462,-1.4574,-1.4564,-1.4545,-1.4502,-1.4472,-1.4462,-1.4472,-1.4459,-1.4459,-1.4444,-1.4488,-1.4493,-1.4497,-1.4512,-1.4518,-1.4444,-1.4443,-1.4443,-1.4443,0,-1.4829,-1.4813,-1.4816,-1.4774,-1.4756,-1.475,-1.4702,-1.4691,-1.4662,-1.4631,-1.4619,-1.4581,-1.4552,-1.4547,-1.4517,-1.4534,-1.4525,-1.4498,-1.4465,-1.4509,-1.4523,-1.4528,-1.4449,-1.4448,-1.4447,-1.4446,0,0,-1.4914,-1.4847,-1.4849,-1.483,-1.4782,-1.4769,-1.4761,-1.4733,-1.4725,-1.4696,-1.4689,-1.4662,-1.4637,-1.4618,-1.4585,-1.4587,-1.4624,-1.456,-1.4558,-1.4575,-1.4643,-1.4666,-1.4673,-1.4602,-1.4603,-1.4604,-1.4647,0,-1.4954,-1.4936,-1.4894,-1.489,-1.4877,-1.4827,-1.482,-1.4791,-1.4762,-1.4747,-1.4715,-1.4698,-1.4665,-1.4653,-1.4653,-1.462,-1.4637,-1.4616,-1.4598,-1.4598,-1.4612,-1.468,-1.4703,-1.4746,-1.4652,-1.4653,-1.4653,0,-1.4997,-1.4972,-1.4968,-1.4923,-1.4915,-1.491,-1.4882,-1.4867,-1.4834,-1.4813,-1.4793,-1.4757,-1.4748,-1.4717,-1.4705,-1.4691,-1.4681,-1.4665,-1.4665,-1.4663,-1.463,-1.4683,-1.4758,-1.4766,-1.4661,-1.466,-1.466,0,-1.5064,-1.5028,-1.5022,-1.5007,-1.4953,-1.4951,-1.4929,-1.4894,-1.4881,-1.4856,-1.4847,-1.4822,-1.4809,-1.479,-1.475,-1.473,-1.4744,-1.4708,-1.4728,-1.473,-1.4735,-1.4735,-1.4813,-1.4725,-1.4725,-1.4725,-1.4724,0,-1.5114,-1.5114,-1.5051,-1.5047,-1.5046,-1.4998,-1.4999,-1.4972,-1.4942,-1.4933,-1.4887,-1.488,-1.4826,-1.4813,-1.4781,-1.4778,-1.4772,-1.4756,-1.4749,-1.4762,-1.4764,-1.4756,-1.4753,-1.4726,-1.4726,-1.4725,-1.4725,0,-1.5188,-1.5146,-1.5136,-1.5087,-1.5074,-1.5076,-1.5034,-1.503,-1.4999,-1.4988,-1.4983,-1.4935,-1.4918,-1.4875,-1.4846,-1.4825,-1.4832,-1.4815,-1.4844,-1.4839,-1.4862,-1.4862,-1.4939,-1.4948,-1.4852,-1.4853,-1.4854,0,-1.5224,-1.5223,-1.5174,-1.5165,-1.5145,-1.513,-1.5117,-1.5069,-1.5057,-1.502,-1.5021,-1.5,-1.4981,-1.4957,-1.492,-1.4898,-1.4883,-1.4911,-1.4879,-1.4894,-1.4887,-1.4888,-1.4889,-1.4919,-1.492,-1.4921,-1.4922,0,-1.5293,-1.5273,-1.5254,-1.523,-1.5215,-1.5193,-1.5169,-1.5164,-1.5111,-1.51,-1.5082,-1.5068,-1.504,-1.5021,-1.4994,-1.4972,-1.494,-1.4932,-1.4936,-1.4951,-1.4969,-1.4963,-1.4866,-1.4931,-1.493,-1.493,-1.4929,-1.4929,-1.535,-1.5348,-1.5315,-1.5297,-1.5274,-1.5253,-1.5247,-1.5215,-1.52,-1.5173,-1.5146,-1.5132,-1.5101,-1.5062,-1.5042,-1.5032,-1.5014,-1.5019,-1.5021,-1.5024,-1.5031,-1.4969,-1.5026,-1.5026,-1.5026,-1.5025,-1.5025,0,-1.542,-1.5396,-1.5379,-1.5348,-1.5334,-1.5304,-1.5276,-1.5267,-1.5255,-1.5229,-1.5212,-1.5193,-1.5175,-1.5137,-1.5116,-1.5115,-1.51,-1.5112,-1.5112,-1.5109,-1.5046,-1.5046,-1.5124,-1.5124,-1.5124,-1.5124,-1.5124,-1.5124,-1.5454,-1.545,-1.5426,-1.5411,-1.5387,-1.5373,-1.536,-1.5341,-1.532,-1.5301,-1.5286,-1.5261,-1.5231,-1.5208,-1.5191,-1.518,-1.5176,-1.5193,-1.5179,-1.5122,-1.5112,-1.5104,-1.5103,-1.5192,-1.5192,-1.5242,-1.5242,-1.5243]},{"header":{"parameterUnit":"m.s-1","parameterCategory":1,"la1":30.2991,"la2":30.254,"lo1":-89.0895,"lo2":-89.0444,"dy":0.0017,"dx":0.0017,"nx":28,"ny":28,"refTime":"2025-03-01T09:00:00:Z","depth":0,"parameterNumber":3,"parameterNumberName":"V-component_of_WINDS"},"data":[0,0,0,0,0,0,0,0,0,0,0,0,0,0,0,0,0,0,0,0,0,0,0,0,0,0,0,0,0,0,0,0,0,0,0,0,0,0,0,0,0,0,0,0,0,0,0,0,0,0,0,0,0,0,0,0,0,0,-0.0106,-0.0107,0,-0.0178,-0.0179,-0.0179,-0.0251,-0.0252,-0.0253,-0.0254,-0.0328,-0.033,-0.0331,0,0,0,0,0,0,0,0,0,0,0,0,0,-0.0032,-0.0033,-0.0106,-0.0107,-0.0108,-0.0178,-0.0179,-0.018,-0.0251,-0.0252,-0.0253,-0.0255,-0.0328,-0.0329,-0.0331,0,0,0,0,0,0,0,0,0,0,0,0,0,-0.008,-0.0034,-0.0106,-0.0152,-0.0157,-0.0177,-0.0179,-0.018,-0.0251,-0.0252,-0.0254,-0.0255,-0.0328,-0.0329,-0.0331,-0.0312,0,0,-0.0336,-0.0337,0,0,0,0,0,0,0,0,-0.0077,-0.0083,-0.0144,-0.0149,-0.0154,-0.0207,-0.018,-0.0224,-0.0251,-0.0215,-0.0254,-0.0256,-0.0287,-0.0292,-0.0302,-0.0316,-0.0319,-0.0336,-0.0337,-0.0338,-0.0338,0,0,0,0,0,0,0,-0.0074,-0.008,-0.0134,-0.0145,-0.0151,-0.0169,-0.0178,-0.0189,-0.0242,-0.0218,-0.0224,-0.0231,-0.029,-0.0301,-0.0305,-0.032,-0.0336,-0.0337,-0.0338,-0.0339,-0.0325,-0.0324,0,0,0,0,0,0,-0.0063,-0.0077,-0.0132,-0.0137,-0.0118,-0.017,-0.0179,-0.0189,-0.0242,-0.0252,-0.023,-0.0234,-0.0297,-0.0303,-0.0308,-0.0292,-0.0338,-0.0339,-0.034,-0.0326,-0.0325,-0.0323,0,0,0,0,0,0,-0.0062,-0.0068,-0.0129,-0.0108,-0.0117,-0.0169,-0.018,-0.0189,-0.02,-0.0251,-0.0261,-0.0231,-0.0298,-0.0305,-0.0311,-0.0296,-0.034,-0.0341,-0.0328,-0.0326,-0.0324,-0.0259,0,0,0,0,0,0,-0.0059,-0.0067,-0.006,-0.0108,-0.0118,-0.0131,-0.0179,-0.019,-0.0203,-0.0209,-0.0255,-0.0264,-0.03,-0.0308,-0.0313,-0.0299,-0.0343,-0.0329,-0.0327,-0.0324,-0.0263,-0.0255,-0.0248,0,0,0,0,0,-0.0056,-0.0038,-0.0059,-0.0065,-0.0111,-0.013,-0.0136,-0.0178,-0.0201,-0.0195,-0.0228,-0.0262,-0.0296,-0.0308,-0.0314,-0.03,-0.0331,-0.0328,-0.0325,-0.0266,-0.0257,-0.0248,0,0,0,0,0,0,0.0013,-0.0045,-0.0069,-0.0066,-0.0092,-0.0142,-0.0136,-0.0166,-0.0188,-0.0193,-0.0244,-0.0254,-0.0255,-0.0278,-0.029,-0.0286,-0.0318,-0.0316,-0.0272,-0.0263,-0.0256,-0.0252,-0.0344,0,0,0,0,0,0.0029,0.0018,-0.0032,-0.0024,-0.0036,-0.0083,-0.0093,-0.0124,-0.0154,-0.0165,-0.0199,-0.0227,-0.0244,-0.0254,-0.0273,-0.0265,-0.0278,-0.0259,-0.0251,-0.0245,-0.0244,-0.0245,-0.0238,-0.0313,-0.0313,-0.0313,0,0,0.0061,0.0028,0.0024,-0.0011,-0.0035,-0.0046,-0.0093,-0.0101,-0.011,-0.0167,-0.0176,-0.02,-0.0235,-0.0235,-0.0237,-0.0254,-0.0225,-0.0241,-0.0236,-0.0238,-0.0241,-0.0234,-0.0227,-0.0311,-0.0311,-0.0312,0,0,0.0113,0.0089,0.0091,0.0067,0.0031,-0.0001,0.0,-0.0045,-0.0064,-0.0073,-0.0117,-0.0128,-0.0155,-0.018,-0.0195,-0.0153,-0.0186,-0.0157,-0.012,-0.012,-0.0115,-0.011,-0.0098,-0.0092,-0.0155,-0.0154,-0.0154,0,0.0157,0.014,0.0096,0.0089,0.0074,0.0023,0.0023,0.0003,-0.0037,-0.0047,-0.0066,-0.0103,-0.013,-0.0138,-0.0128,-0.0137,-0.014,-0.0153,-0.0112,-0.0107,-0.0103,-0.0092,-0.0087,-0.0151,-0.0151,-0.0152,-0.0152,0,0.0195,0.0183,0.0189,0.0151,0.0137,0.0134,0.0089,0.008,0.0051,0.0021,0.0011,-0.0022,-0.005,-0.0053,-0.0081,-0.0066,-0.0076,-0.0102,-0.0136,-0.0092,-0.0083,-0.0079,-0.0146,-0.0147,-0.0148,-0.0149,0,0,0.0287,0.0224,0.0227,0.0207,0.0164,0.0154,0.0148,0.0121,0.0113,0.0088,0.008,0.0057,0.0032,0.0014,-0.0016,-0.0016,0.0016,-0.0043,-0.0045,-0.0034,0.0027,0.0045,0.0051,-0.0005,-0.0004,-0.0004,0.0029,0,0.0329,0.0316,0.0276,0.0274,0.0262,0.0213,0.0208,0.018,0.0152,0.0137,0.0106,0.0089,0.0059,0.0048,0.0046,0.0013,0.0027,0.001,-0.0015,-0.0015,-0.0008,0.0056,0.0075,0.0108,0.0033,0.0033,0.0034,0,0.0376,0.0352,0.035,0.0305,0.0298,0.0294,0.0265,0.0252,0.0219,0.0198,0.0178,0.0144,0.0134,0.0105,0.0089,0.0078,0.0066,0.0048,0.0048,0.0042,0.001,0.0048,0.0117,0.0121,0.004,0.0039,0.0039,0,0.0439,0.0408,0.0401,0.0387,0.0335,0.0333,0.0311,0.0277,0.0263,0.0238,0.0227,0.0202,0.0187,0.0168,0.0127,0.011,0.0114,0.0083,0.0095,0.0096,0.0096,0.0096,0.0161,0.0094,0.0094,0.0093,0.0093,0,0.0489,0.0488,0.0428,0.0424,0.0421,0.0376,0.0374,0.0348,0.0317,0.0306,0.0264,0.0254,0.0202,0.0186,0.0154,0.0144,0.0138,0.012,0.0111,0.0122,0.0124,0.0111,0.0106,0.0095,0.0094,0.0094,0.0094,0,0.0558,0.0518,0.0507,0.0459,0.0447,0.0447,0.0405,0.0398,0.0368,0.0355,0.0349,0.0301,0.028,0.0238,0.0205,0.0183,0.0179,0.0166,0.019,0.0184,0.0198,0.0196,0.0254,0.0258,0.0192,0.0193,0.0193,0,0.059,0.0588,0.054,0.0529,0.0509,0.0493,0.0478,0.0433,0.0419,0.0381,0.0379,0.0354,0.0331,0.03,0.0261,0.0235,0.0219,0.0241,0.0214,0.0225,0.0215,0.0214,0.0212,0.0246,0.0247,0.0248,0.0248,0,0.0651,0.0631,0.0612,0.0585,0.0568,0.0545,0.0519,0.0513,0.0462,0.0448,0.0426,0.0409,0.0375,0.035,0.0318,0.0295,0.0262,0.0257,0.0258,0.0268,0.0281,0.0271,0.0203,0.0256,0.0255,0.0254,0.0254,0.0254,0.07,0.0696,0.066,0.0639,0.0615,0.0592,0.0583,0.0552,0.0532,0.0501,0.0476,0.0455,0.042,0.0375,0.0353,0.0335,0.032,0.0322,0.0322,0.0322,0.0325,0.0287,0.033,0.0329,0.0329,0.0329,0.0329,0,0.0756,0.0731,0.0713,0.0678,0.0661,0.0633,0.0603,0.059,0.0573,0.0544,0.0522,0.0496,0.0471,0.0431,0.0403,0.0396,0.038,0.039,0.0388,0.0383,0.0342,0.0343,0.0403,0.0403,0.0403,0.0403,0.0403,0.0403,0.0783,0.0772,0.0749,0.0725,0.07,0.0679,0.0664,0.0642,0.0618,0.059,0.057,0.0544,0.051,0.0479,0.0455,0.0443,0.0433,0.0447,0.0431,0.0393,0.0386,0.038,0.038,0.0446,0.0446,0.0472,0.0473,0.0473]}]]